Weather History for KASJ - September, 2013

Change the Weather History Date:

Saturday, September 7, 2013

  Actual Average (KEMV) Record (KEMV)
Temperature  
Mean Temperature 67 °F -  
Max Temperature 80 °F 84 °F 99 °F (1983)
Min Temperature 54 °F 58 °F 41 °F (1984)
Cooling Degree Days 2    
Growing Degree Days 17 (Base 50)    
Moisture  
Dew Point 57 °F    
Average Humidity 75    
Maximum Humidity 95    
Minimum Humidity 44    
Precipitation  
Precipitation 0.00 in - - ()
Sea Level Pressure  
Sea Level Pressure 30.08 in    
Wind  
Wind Speed 0 mph (NNE)    
Max Wind Speed 5 mph    
Max Gust Speed -    
Visibility 10 miles    
Events      
Averages and records for this station are not official NWS values.
T = Trace of Precipitation, MM = Missing Value Source: NWS Daily Summary

Daily Weather History Graph

Daily Weather History Graph

Search for Another Location

Airport or City:

Trip Planner

Search our weather history database for the weather conditions in past years. The results will help you decide how hot, cold, wet, or windy it might be!

Date:

Astronomy

Sep. 07, 2013 Rise Set
Actual Time 6:45 AM EDT 7:27 PM EDT
Civil Twilight 6:18 AM EDT 7:53 PM EDT
Nautical Twilight 5:48 AM EDT 8:24 PM EDT
Astronomical Twilight 5:16 AM EDT 8:55 PM EDT
Moon 8:51 AM EDT (9/7) 8:31 PM EDT (9/7)
Length of Visible Light 13h 34m
Length of Day
12h 42m
Waxing Crescent, 5% of the Moon is Illuminated
Sep 7
Waxing Crescent
Sep 12
First Quarter
Sep 19
Full
Sep 26
Last Quarter
Oct 4
New

Hourly Weather History & Observations

Time (EDT) Temp. Heat Index Dew Point Humidity Pressure Visibility Wind Dir Wind Speed Gust Speed Precip Events Conditions
12:15 AM 59.2 °F - 57.2 °F 93% 30.15 in 10.0 mi Calm Calm - N/A   Clear
12:35 AM 58.5 °F - 56.5 °F 93% 30.14 in 10.0 mi Calm Calm - N/A   Clear
12:55 AM 58.1 °F - 56.3 °F 94% 30.14 in 10.0 mi Calm Calm - N/A   Clear
1:15 AM 58.1 °F - 56.3 °F 94% 30.14 in 10.0 mi Calm Calm - N/A   Clear
1:35 AM 57.6 °F - 55.9 °F 94% 30.14 in 10.0 mi Calm Calm - N/A   Clear
1:55 AM 57.4 °F - 55.6 °F 94% 30.13 in 10.0 mi Calm Calm - N/A   Clear
2:15 AM 57.2 °F - 55.4 °F 94% 30.13 in 10.0 mi Calm Calm - N/A   Clear
2:35 AM 56.8 °F - 54.7 °F 92% 30.13 in 10.0 mi Calm Calm - N/A   Clear
2:55 AM 56.3 °F - 54.5 °F 94% 30.13 in 10.0 mi Calm Calm - N/A   Clear
3:15 AM 56.3 °F - 54.3 °F 93% 30.12 in 10.0 mi Calm Calm - N/A   Clear
3:35 AM 56.1 °F - 54.0 °F 92% 30.12 in 10.0 mi Calm Calm - N/A   Clear
3:55 AM 55.6 °F - 53.6 °F 93% 30.12 in 10.0 mi Calm Calm - N/A   Clear
4:15 AM 56.1 °F - 53.8 °F 92% 30.12 in 10.0 mi Calm Calm - N/A   Clear
4:35 AM 55.9 °F - 54.0 °F 93% 30.13 in 10.0 mi Calm Calm - N/A   Clear
4:55 AM 55.6 °F - 53.6 °F 93% 30.13 in 10.0 mi Calm Calm - N/A   Clear
5:15 AM 54.7 °F - 53.1 °F 94% 30.13 in 10.0 mi Calm Calm - N/A   Clear
5:35 AM 54.9 °F - 52.7 °F 92% 30.12 in 10.0 mi Calm Calm - N/A   Clear
5:55 AM 54.5 °F - 52.7 °F 94% 30.13 in 10.0 mi Calm Calm - N/A   Clear
6:15 AM 54.5 °F - 52.7 °F 94% 30.13 in 10.0 mi Calm Calm - N/A   Clear
6:35 AM 54.0 °F - 52.5 °F 95% 30.13 in 10.0 mi Calm Calm - N/A   Clear
6:55 AM 54.1 °F - 52.3 °F 94% 30.14 in 10.0 mi Calm Calm - N/A   Clear
7:15 AM 54.1 °F - 52.3 °F 94% 30.14 in 10.0 mi Calm Calm - N/A   Clear
7:35 AM 56.1 °F - 54.3 °F 94% 30.14 in 10.0 mi Calm Calm - N/A   Clear
7:55 AM 57.2 °F - 55.2 °F 93% 30.14 in 10.0 mi Calm Calm - N/A   Clear
8:15 AM 59.4 °F - 56.1 °F 89% 30.13 in 10.0 mi Calm Calm - N/A   Clear
8:35 AM 60.8 °F - 57.2 °F 88% 30.14 in 10.0 mi Calm Calm - N/A   Clear
8:55 AM 63.9 °F - 58.3 °F 82% 30.13 in 10.0 mi Calm Calm - N/A   Clear
9:15 AM 67.3 °F - 58.8 °F 74% 30.12 in 10.0 mi Calm Calm - N/A   Clear
9:35 AM 70.0 °F - 58.5 °F 67% 30.12 in 10.0 mi Calm Calm - N/A   Clear
9:55 AM 71.2 °F - 56.1 °F 59% 30.13 in 10.0 mi Calm Calm - N/A   Clear
10:15 AM 72.5 °F - 54.9 °F 54% 30.13 in 10.0 mi Calm Calm - N/A   Clear
10:35 AM 72.5 °F - 54.1 °F 52% 30.13 in 10.0 mi Calm Calm - N/A   Clear
10:55 AM 73.6 °F - 54.9 °F 52% 30.13 in 10.0 mi Calm Calm - N/A   Clear
11:15 AM 73.8 °F - 54.1 °F 50% 30.13 in 10.0 mi Calm Calm - N/A   Clear
11:35 AM 73.8 °F - 54.3 °F 51% 30.12 in 10.0 mi Calm Calm - N/A   Clear
11:55 AM 75.6 °F - 55.4 °F 49% 30.12 in 10.0 mi Calm Calm - N/A   Clear
12:15 PM 75.2 °F - 54.5 °F 48% 30.11 in 10.0 mi NNE 3.5 mph - N/A   Clear
12:35 PM 75.9 °F - 54.9 °F 48% 30.10 in 10.0 mi Calm Calm - N/A   Clear
12:55 PM 75.9 °F - 55.4 °F 49% 30.09 in 10.0 mi North 3.5 mph - N/A   Clear
1:15 PM 76.8 °F - 55.6 °F 48% 30.09 in 10.0 mi North 4.6 mph - N/A   Clear
1:35 PM 77.2 °F - 55.9 °F 48% 30.08 in 10.0 mi North 4.6 mph - N/A   Clear
1:55 PM 77.7 °F - 55.4 °F 46% 30.07 in 10.0 mi NNW 4.6 mph - N/A   Clear
2:15 PM 77.9 °F - 55.6 °F 46% 30.06 in 10.0 mi NNE 4.6 mph - N/A   Clear
2:35 PM 78.1 °F - 54.7 °F 44% 30.06 in 10.0 mi Calm Calm - N/A   Clear
2:55 PM 78.8 °F - 56.1 °F 46% 30.05 in 10.0 mi North 3.5 mph - N/A   Clear
3:15 PM 79.0 °F - 55.9 °F 45% 30.04 in 10.0 mi North 3.5 mph - N/A   Clear
3:35 PM 78.6 °F - 57.0 °F 47% 30.03 in 10.0 mi Calm Calm - N/A   Clear
3:55 PM 77.9 °F - 57.2 °F 49% 30.02 in 10.0 mi Calm Calm - N/A   Scattered Clouds
4:15 PM 79.0 °F - 56.8 °F 46% 30.01 in 10.0 mi Calm Calm - N/A   Scattered Clouds
4:35 PM 79.0 °F - 57.6 °F 48% 30.01 in 10.0 mi South 3.5 mph - N/A   Clear
4:55 PM 80.1 °F 80.9 °F 59.9 °F 50% 30.01 in 10.0 mi Calm Calm - N/A   Clear
5:15 PM 79.0 °F - 60.3 °F 53% 30.01 in 10.0 mi Calm Calm - N/A   Clear
5:35 PM 76.8 °F - 61.2 °F 58% 30.01 in 10.0 mi Calm Calm - N/A   Scattered Clouds
5:55 PM 75.7 °F - 61.9 °F 62% 30.01 in 10.0 mi Calm Calm - N/A   Scattered Clouds
6:15 PM 74.8 °F - 63.0 °F 66% 30.01 in 10.0 mi Calm Calm - N/A   Clear
6:35 PM 72.9 °F - 63.3 °F 72% 30.01 in 10.0 mi Calm Calm - N/A   Clear
6:55 PM 72.3 °F - 63.5 °F 74% 30.00 in 10.0 mi Calm Calm - N/A   Clear
7:15 PM 71.4 °F - 62.6 °F 74% 30.00 in 10.0 mi Calm Calm - N/A   Clear
7:35 PM 70.3 °F - 62.4 °F 76% 30.00 in 10.0 mi Calm Calm - N/A   Clear
7:55 PM 68.9 °F - 62.1 °F 79% 30.00 in 7.0 mi Calm Calm - N/A   Clear
8:15 PM 67.5 °F - 61.5 °F 81% 30.01 in 10.0 mi Calm Calm - N/A   Clear
8:35 PM 66.6 °F - 61.7 °F 84% 30.01 in 10.0 mi Calm Calm - N/A   Clear
8:55 PM 66.6 °F - 61.5 °F 84% 30.01 in 10.0 mi Calm Calm - N/A   Clear
9:15 PM 64.4 °F - 61.0 °F 89% 30.01 in 10.0 mi Calm Calm - N/A   Clear
9:35 PM 63.9 °F - 61.0 °F 90% 30.01 in 10.0 mi Calm Calm - N/A   Clear
9:55 PM 63.1 °F - 60.6 °F 91% 30.01 in 10.0 mi Calm Calm - N/A   Clear
10:15 PM 62.2 °F - 59.7 °F 91% 30.01 in 3.0 mi Calm Calm - N/A   Clear
10:35 PM 61.9 °F - 59.7 °F 93% 30.00 in 10.0 mi Calm Calm - N/A   Clear
10:55 PM 62.6 °F - 59.9 °F 91% 30.00 in 10.0 mi SSE 3.5 mph - N/A   Clear
11:15 PM 63.0 °F - 59.5 °F 89% 30.00 in 10.0 mi SSE 3.5 mph - N/A   Clear
11:35 PM 63.1 °F - 59.2 °F 87% 30.00 in 10.0 mi SSE 3.5 mph - N/A   Clear
11:55 PM 63.1 °F - 59.2 °F 87% 30.00 in 10.0 mi Calm Calm - N/A   Clear